Preview of NWS' New Version of Forecast
This preview is not operational and should not be used for support decisions.

Regional Weather Roundup (RWR)

Issued by National Weather Service (NWS)

                            
000
ASUS43 KDMX 240306
RWRIA 

WEATHER ROUNDUP FOR IOWA
NATIONAL WEATHER SERVICE DES MOINES IA
1000 PM CDT TUE APR 23 2019

NOTE: "FAIR" INDICATES FEW OR NO CLOUDS BELOW 12,000 FEET WITH NO
SIGNIFICANT WEATHER AND/OR OBSTRUCTIONS TO VISIBILITY.

* - THESE STATIONS ARE NOT NWS STATIONS...THUS NOT UNDER NWS
QUALITY CONTROL.  THEY ALSO DO NOT REPORT WEATHER SUCH 
AS PRECIPITATION OR FOG.  

IAZ001>003-012>014-020>022-031>034-043>046-240400-
   NORTHWEST IOWA
  
CITY           SKY/WX    TMP DP  RH WIND       PRES   REMARKS
CARROLL *      PTCLDY    50  36  57 CALM      29.99S                  
CHEROKEE *     CLEAR     47  37  66 CALM      30.00R                  
DENISON *      CLOUDY    50  32  50 E5        30.01S                  
LE MARS *        N/A    N/A N/A N/A MISG        N/A                   
SHELDON *        N/A     50  43  76 SE5       29.98S                  
SIOUX CITY     CLEAR     53  34  48 E6        29.98R                  
SPENCER        CLEAR     49  39  68 E5        30.00S                  
STORM LAKE *   CLEAR     50  32  50 SE7       29.97S                  
$$
 
IAZ055>058-069>071-079>083-090>094-240400-
   SOUTHWEST IOWA
  
CITY           SKY/WX    TMP DP  RH WIND       PRES   REMARKS
ATLANTIC *     CLOUDY    52  39  62 SW3       29.99S                  
AUDUBON *      CLOUDY    46  37  71 CALM      30.01S                  
CLARINDA *     CLOUDY    52  46  82 CALM      30.02R                  
COUNCIL BLFS * CLOUDY    55  32  41 SE5       29.99S                  
CRESTON *      CLOUDY    50  45  81 CALM      29.99F                  
HARLAN  *      CLOUDY    50  32  50 CALM      30.00R                  
LAMONI         PTCLDY    52  45  77 SE5       30.00S                  
RED OAK *      CLOUDY    54  45  71 CALM      30.00S                  
SHENANDOAH *   PTCLDY    54  46  76 SE5       29.99R                  
$$
 
IAZ047>049-059>061-072>074-084-240400-
   CENTRAL IOWA
  
CITY           SKY/WX    TMP DP  RH WIND       PRES   REMARKS
AMES           PTCLDY    51  38  60 SE5       30.00S                  
ANKENY *       CLOUDY    54  37  54 CALM      30.01S                  
BOONE *        CLOUDY    54  37  54 E3        29.99S                  
CHARITON *     CLOUDY    54  46  76 SE3       30.00S                  
DES MOINES     CLOUDY    57  35  43 SE5       30.00F                  
GRINNELL*      CLOUDY    53  38  57 SE3       30.03S                  
KNOXVILLE *    CLOUDY    55  41  58 SE6       30.00S                  
MARSHALLTOWN   CLOUDY    50  38  63 SE7       30.00S                  
NEWTON *       CLOUDY    54  37  54 SE7       30.01S                  
PELLA *        CLOUDY    53  38  56 SE3       30.02S                  
PERRY *        FAIR      54  35  47 CALM      29.99S                  
$$
 
IAZ004>006-015-016-023>025-035-036-240400-
   NORTH CENTRAL IOWA
  
CITY           SKY/WX    TMP DP  RH WIND       PRES   REMARKS
ALGONA *       CLEAR     55  34  44 SE7       30.00S                  
CLARION *      CLEAR     48  36  61 SE7       30.01S                  
ESTHERVILLE    CLEAR     49  36  61 E5        30.00S                  
FORT DODGE *   CLEAR     47  38  71 E6        30.01S                  
MASON CITY     CLEAR     49  39  68 S3        30.03S                  
FOREST CITY *  FAIR      46  41  81 CALM      30.01F                  
IOWA FALLS *   FAIR      53  40  61 NE3       30.02F                  
$$

IAZ007>011-017>019-026>030-037>042-050>054-066-240400-
   NORTHEAST IOWA
  
CITY           SKY/WX    TMP DP  RH WIND       PRES   REMARKS
CEDAR RAPIDS   FAIR      53  41  63 SE3       30.01S                  
CHARLES CITY * FAIR      57  32  38 SE6       30.02S                  
CLINTON *      FAIR      52  44  74 SW3       30.03F                  
DECORAH *      FAIR      55  34  44 SE5       30.01S                  
DUBUQUE        FAIR      51  39  63 CALM      30.03S                  
MONTICELLO *   FAIR      52  43  71 CALM      30.02S                  
OELWEIN *      FAIR      54  37  54 SE3       30.03S                  
WATERLOO       FAIR      50  39  66 NE5       30.01S                  
$$
 
IAZ064-065-067-068-078-240400-
   EAST CENTRAL IOWA
  
CITY           SKY/WX    TMP DP  RH WIND       PRES   REMARKS
DAVENPORT      FAIR      54  43  66 CALM      30.04F                  
IOWA CITY      FAIR      51  43  74 CALM      30.03S                  
MT. PLEASANT * CLOUDY    48  45  87 CALM      30.02S                  
MUSCATINE *    FAIR      50  45  81 CALM      30.03S                  
QUAD CITIES    FAIR      53  45  74 CALM      30.01F                  
$$
 
IAZ062-063-075>077-085>089-095>099-240400-
   SOUTHEAST IOWA
  
CITY           SKY/WX    TMP DP  RH WIND       PRES   REMARKS
BURLINGTON     MOCLDY    48  43  82 NE6       30.00F                  
FAIRFIELD *    PTCLDY    48  43  81 E6        30.00F                  
FORT MADISON * CLOUDY    48  46  93 S3        30.03R FOG              
KEOKUK *       CLOUDY    52  48  87 S3        30.02S                  
OSKALOOSA *    FAIR      51  42  70 SE5       30.02S                  
CENTERVILLE *  FAIR      50  48  93 E6        30.03R                  
OTTUMWA        CLOUDY    54  43  66 E5        30.00F                  
WASHINGTON *   CLOUDY    52  45  76 S5        30.03S                  
$$

ABBREVIATIONS USED IN REMARKS
   TC - TEMPERATURES IN CELSIUS
  WCI - WIND CHILL INDEX
   HX - HEAT INDEX
  VSB - VISIBILITY  
$$